Regional Weather Roundup
Issued by NWS

Home | Current Version | Previous Version | Text Only | Print | Product List | Glossary Off
Versions: 1 2 3 4 5 6 7 8 9 10 11 12 13 14 15 16 17 18 19 20 21 22 23 24 25 26 27 28 29 30 31 32 33 34 35 36 37 38 39 40 41 42 43 44 45 46 47 48 49 50

000
ASUS45 KBOU 291910
RWRCO

WEATHER ROUNDUP FOR COLORADO
NATIONAL WEATHER SERVICE PUEBLO CO
100 PM MDT WED JUL 29 2015

NOTE: "FAIR" INDICATES FEW OR NO CLOUDS BELOW 12000 FEET WITH NO
SIGNIFICANT WEATHER AND/OR OBSTRUCTIONS TO VISIBILITY.

COZ001>005-013-030-031-292000-
...NORTHWEST COLORADO...

CITY           SKY/WX    TMP DP  RH WIND       PRES   REMARKS
CRAIG          SUNNY     79  28  15 VRB5      30.37F
HAYDEN         SUNNY     73  27  17 NW6       30.39S
MEEKER         MOSUNNY   79  33  19 SW6       30.36F
MOUNT WERNER   NOT AVBL
STEAMBOAT SPGS FAIR      74  32  21 SW3       30.40S
WALDEN         FAIR      73  28  19 W8G20     30.46S
$$

COZ006>008-011-292000-
...WEST CENTRAL VALLEYS...

CITY           SKY/WX    TMP DP  RH WIND       PRES   REMARKS
GRAND JUNCTION SUNNY     85  34  16 SW6       30.24F
MONTROSE       SUNNY     84  36  18 NW8       30.31F
EAGLE          NOT AVBL
RIFLE          MOSUNNY   85  31  14 VRB3      30.28F
DELTA          NOT AVBL
NUCLA          FAIR      86  27  11 CALM      30.34F
$$

COZ017>023-064>068-292000-
...SOUTHWEST COLORADO...

CITY           SKY/WX    TMP DP  RH WIND       PRES   REMARKS
DURANGO        PTSUNNY   83  44  25 N3        30.35F
CORTEZ         SUNNY     88  33  14 SW7       30.28F
PAGOSA SPRINGS PTSUNNY   75  40  28 E3        30.44F
TELLURIDE      SUNNY     73  24  16 W5        30.56S
WOLF CREEK PAS NOT AVBL
$$

COZ009-010-012-014-032>034-037-058>063-292000-
...CENTRAL COLORADO...

CITY           SKY/WX    TMP DP  RH WIND       PRES   REMARKS
ASPEN          SUNNY     78  33  19 N9        30.43F
BUENA VISTA    FAIR      77  37  23 CALM      30.42F
COPPER MTN     MOSUNNY   61  25  25 W13       30.76S
BERTHOUD PASS  FAIR      52  43  71 NE5       30.80S
COTTONWOOD PAS MOSUNNY   77  36  22 E10G17    30.58F
GUNNISON       SUNNY     77  28  16 SW6       30.44F
KREMMLING      SUNNY     81  21  11 N7        30.41F
LEADVILLE      SUNNY     69  26  20 NW8       30.56F
MONARCH PASS   MOSUNNY   63  30  29 W17       30.85S
SALIDA         FAIR      78  46  31 E18G26    30.47F
NIWOT RIDGE    NOT AVBL
SUNLIGHT       MOSUNNY   64  34  32 CALM      30.70S
WILKERSON PASS SUNNY     64  28  25 NW3       30.72F
$$

COZ069>075-292000-
...SAN LUIS VALLEY/SANGRE DE CRISTO MOUNTAINS...

CITY           SKY/WX    TMP DP  RH WIND       PRES   REMARKS
ALAMOSA        PTSUNNY   77  43  29 VRB7      30.39F
LA VETA PASS   PTSUNNY   63  46  55 MISG      30.64R
SAGUACHE       MOSUNNY   73  46  38 S5        30.43F
$$

COZ035-036-038>040-292000-
...NORTHERN COLORADO FRONT RANGE...

CITY           SKY/WX    TMP DP  RH WIND       PRES   REMARKS
DENVER INTL AP MOSUNNY   83  48  29 S18G35    30.29F
DMNS CITY PARK NOT AVBL
AURORA         MOSUNNY   81  51  35 S14G29    30.31F
FRONT RANGE AP MOSUNNY   81  46  30 SE23G30   30.32F
ERIE MUNI ARPT FAIR      81  45  28 E3        30.28F
BOULDER MUN AP FAIR      79  46  31 E6        30.30F
CENTENNIAL     MOSUNNY   80  51  36 S21G26    30.32F
BROOMFIELD     MOSUNNY   81  48  32 S9        30.31F
LOVELAND       SUNNY     77  48  36 CALM      30.29F
LONGMONT       FAIR      83  46  26 E6        30.30F
$$

COZ041-046-047-076>085-087-088-292000-
...PIKES PEAK/PALMER DIVIDE AND SOUTHERN FOOTHILLS...

CITY           SKY/WX    TMP DP  RH WIND       PRES   REMARKS
COLO. SPRINGS  PTSUNNY   70  48  45 S15       30.43S
A. F. ACADEMY  PTSUNNY   71  49  46 SE16G25   30.42S
ELLICOTT       PTSUNNY  N/A N/A N/A S14G23    30.41F
FALCON         CLOUDY    68  48  48 S14G22    30.47S
FORT CARSON    CLOUDY    70  52  53 S9        30.40S
LIMON          SUNNY     74  50  42 SE18G25   30.38F
MONUMENT HILL  SUNNY     68  48  49 S22G35    30.43F
TRINIDAD       PTSUNNY   78  51  38 SE8       30.35F
$$

COZ042>045-048>051-090-091-292000-
...NORTHEAST COLORADO...

CITY           SKY/WX    TMP DP  RH WIND       PRES   REMARKS
GREELEY ARPT   SUNNY     86  50  28 SE14G20   30.27F
AKRON          SUNNY     78  46  32 S22G30    30.33F
BURLINGTON     PTSUNNY   74  42  31 SE12G21   30.34F
WRAY           FAIR      82  47  29 SE17G23   30.31F
STERLING       FAIR      81  48  32 S15G26    30.28S
HOLYOKE        FAIR      79  48  34 S12G20    30.30F
FORT MORGAN    FAIR      82  45  27 S20G25    30.29F
$$

COZ086-089-092>099-292000-
...SOUTHEAST COLORADO...

CITY           SKY/WX    TMP DP  RH WIND       PRES   REMARKS
PUEBLO         LGT RAIN  83  49  30 E14G25    30.31F
LA JUNTA       SUNNY     83  43  24 MISG      30.30F
LAMAR          SUNNY     81  46  29 E12G20    30.28F
SPRINGFIELD      N/A     78  50  37 E9        30.31F
$$




USA.gov is the U.S. government's official web portal to all federal, state and local government web resources and services.